This is the latest recevied weather packets stored in our database for station/object KE0QIB. If no packets are shown the sender has not sent any weather packets the latest 10 day(s).
| Time | Temp. | Humidity | Pressure | Rain* | Wind** | Luminosity | Snow |
|---|---|---|---|---|---|---|---|
| 1778160407 | 9.44° C | 45% | 995.6 hPa | 0 mm | - | - | - |
| 1778160107 | 9.44° C | 41% | 995.3 hPa | 0 mm | - | - | - |
| 1778159807 | 9.44° C | 43% | 995.3 hPa | 0 mm | - | - | - |
| 1778159507 | 8.89° C | 39% | 995.3 hPa | 0 mm | - | - | - |
| 1778159207 | 8.33° C | 39% | 995.5 hPa | 0 mm | - | - | - |
| 1778158907 | 7.78° C | 41% | 995.5 hPa | 0 mm | - | - | - |
| 1778158607 | 7.22° C | 43% | 995.5 hPa | 0 mm | - | - | - |
| 1778158307 | 6.67° C | 45% | 995.8 hPa | 0 mm | - | - | - |
| 1778158007 | 6.67° C | 46% | 995.8 hPa | 0 mm | - | - | - |
| 1778157707 | 6.11° C | 46% | 995.8 hPa | 0 mm | - | - | - |
| 1778157407 | 5.56° C | 44% | 995.6 hPa | 0 mm | - | - | - |
| 1778157107 | 5.56° C | 44% | 995.6 hPa | 0 mm | - | - | - |
| 1778156807 | 5.56° C | 44% | 995.6 hPa | 0 mm | - | - | - |
| 1778156507 | 5° C | 43% | 995.6 hPa | 0 mm | - | - | - |
| 1778156207 | 5° C | 44% | 995.6 hPa | 0 mm | - | - | - |
| 1778155907 | 5° C | 43% | 995.6 hPa | 0 mm | - | - | - |
| 1778155607 | 4.44° C | 44% | 995.6 hPa | 0 mm | - | - | - |
| 1778155307 | 4.44° C | 44% | 995.6 hPa | 0 mm | - | - | - |
| 1778155007 | 4.44° C | 45% | 995.6 hPa | 0 mm | - | - | - |
| 1778154707 | 3.89° C | 46% | 995.9 hPa | 0 mm | - | - | - |
| 1778154407 | 3.89° C | 45% | 995.9 hPa | 0 mm | - | - | - |
| 1778154107 | 3.89° C | 45% | 995.9 hPa | 0 mm | - | - | - |
| 1778153807 | 3.89° C | 46% | 995.6 hPa | 0 mm | - | - | - |
| 1778153507 | 3.89° C | 45% | 995.6 hPa | 0 mm | - | - | - |
| 1778153207 | 3.89° C | 46% | 995.6 hPa | 0 mm | - | - | - |
* Rain latest hour (hover to see other rain measurements)
** Current wind speed in m/s (hover to see current wind gust speed)